Tracking 20369 objects as of 18-Feb-2020
HD Live streaming from Space Station
objects crossing your sky now

MOLNIYA 1-80

Track MOLNIYA 1-80 now!
MOLNIYA 1-80 is classified as:


NORAD ID: 21118
Int'l Code: 1991-012A
Perigee: 1,862.3 km
Apogee: 37,706.4 km
Inclination: 64.2 °
Period: 701.6 minutes
Semi major axis: 26155 km
RCS: 6.3095 m2 (large)
Launch date: February 15, 1991
Source: Commonwealth of Independent States (former USSR) (CIS)
Launch site: PLESETSK MISSILE AND SPACE COMPLEX (PKMTR)
aabbcc
Your satellite tracking list
Your tracking list is empty




NASA's NSSDC Master Catalog

Two Line Element Set (TLE):
1 21118U 91012A   20047.45926385 -.00000249  00000-0  00000+0 0  9996
2 21118  64.1696  70.5924 6852167 287.0133  12.6648  2.05240497213515
Source of the keplerian elements: AFSPC